Regional Weather Roundup
Issued by NWS

Home | Current Version | Previous Version | Text Only | Print | Product List | Glossary Off
Versions: 1 2 3 4 5 6 7 8 9 10 11 12 13 14 15 16 17 18 19 20 21 22 23 24 25 26 27 28 29 30 31 32 33 34 35 36 37 38 39 40 41 42 43 44 45 46 47 48 49 50

000
ASUS43 KMKX 242111
RWRWI

WISCONSIN REGIONAL WEATHER ROUNDUP
NATIONAL WEATHER SERVICE MILWAUKEE/SULLIVAN WI
400 PM CDT MON APR 24 2017

NOTE: "FAIR" INDICATES FEW OR NO CLOUDS BELOW 12,000 FEET WITH NO
SIGNIFICANT WEATHER AND/OR OBSTRUCTIONS TO VISIBILITY.

WIZ001-002-006>008-014>016-023>028-242200-
NORTHWEST WISCONSIN

CITY           SKY/WX    TMP DP  RH WIND       PRES   REMARKS
SUPERIOR ARPT  CLOUDY    38  34  84 E21G29    29.74F WCI  28
ASHLAND        CLOUDY    46  35  65 N13       29.75F
HAYWARD        CLOUDY    66  30  26 S18G26    29.68F
SIREN          CLOUDY    67  29  23 S13G33    29.65F
CUMBERLAND     CLOUDY    64  32  29 S16G26    29.67F
RICE LAKE      CLOUDY    68  32  26 SE21G26   29.70F
CHETEK         CLOUDY    66  34  30 SE22G28   29.69F
LADYSMITH      CLOUDY    66  33  29 SE16G25   29.73F
EAU CLAIRE     CLOUDY    68  28  22 S18G26    29.68F
MENOMONIE      CLOUDY    69  30  23 SE15G21   29.68F
NEW RICHMOND   CLOUDY    67  29  24 S16G24    29.64F
OSCEOLA        CLOUDY    68  30  24 S15G31    29.66F
$$

WIZ003>005-009-010-017-018-242200-
NORTH CENTRAL WISCONSIN

CITY           SKY/WX    TMP DP  RH WIND       PRES   REMARKS
MANITOWISH WTR CLOUDY    65  30  26 S17G26    29.75F
ARBOR VITAE    PTSUNNY   67  27  22 S22       29.76F
WOODRUFF       PTSUNNY   67  27  22 S22       29.76F
RHINELANDER    CLOUDY    65  29  25 S17G26    29.79F
EAGLE RIVER    CLOUDY    66  26  22 S16G23    29.79F
LAND O LAKES   MOSUNNY   65  26  22 S12G26    29.80F
PHILLIPS       CLOUDY    64  32  30 S14G23    29.75F
TOMAHAWK       CLOUDY    65  31  28 S9        29.78F
MEDFORD        CLOUDY    63  33  32 S20       29.76F
MERRILL        CLOUDY    66  36  33 S8        29.79F
$$

WIZ029-030-035-036-043>047-242200-
CENTRAL WISCONSIN

CITY           SKY/WX    TMP DP  RH WIND       PRES   REMARKS
WAUSAU         MOSUNNY   66  31  27 S17G28    29.77F
MOSINEE        PTSUNNY   66  32  28 SE18G24   29.79F
MARSHFIELD     CLOUDY    67  32  27 S16       29.76F
STEVENS POINT  CLOUDY    66  31  27 SE21      29.80F
WAUPACA        CLOUDY    72  30  21 SE14G22   29.81F
WAUTOMA        CLOUDY    71  29  21 S14G23    29.80F
WISC RAPIDS    NOT AVBL
CAMP DOUGLAS   CLOUDY    72  30  21 SE18G26   29.75F
$$

WIZ011>013-019>022-031-037>040-048>050-242200-
NORTHEAST WISCONSIN

CITY           SKY/WX    TMP DP  RH WIND       PRES   REMARKS
ANTIGO         CLOUDY    62  38  42 S15       29.82F
SHAWANO        CLOUDY    69  43  39 SE14      29.84F
OCONTO         CLOUDY    52  41  65 E9        29.87F
STURGEON BAY   CLOUDY    48  38  68 SE10      29.90F
GREEN BAY      CLOUDY    68  42  38 S15G21    29.85F
MANITOWOC      CLOUDY    52  39  61 SE8       29.90F
APPLETON       PTSUNNY   66  28  24 SE12G20   29.83F
CLINTONVILLE   MOSUNNY   68  32  26 SE17      29.82F
OSHKOSH        CLOUDY    71  33  24 S15G23    29.82F
$$

WIZ032>034-041-042-053>061-242200-
SOUTHWEST WISCONSIN

CITY           SKY/WX    TMP DP  RH WIND       PRES   REMARKS
LA CROSSE      MOSUNNY   72  29  20 S20G30    29.69F
SPARTA         CLOUDY    72  29  20 S20G26    29.74F
VIROQUA        MOSUNNY   70  29  21 S14G23    29.75F
BOSCOBEL       CLOUDY    74  29  19 VRB7      29.75F
PRAIRIE DU CHI MOSUNNY   73  26  17 SE10G20   29.73F
PLATTEVILLE    CLOUDY    72  31  21 SE18      29.78F
$$

WIZ056-057-062-063-064-067-068-242200-
SOUTH CENTRAL WISCONSIN

CITY           SKY/WX    TMP DP  RH WIND       PRES   REMARKS
REEDSBURG      CLOUDY    72  32  23 S16       29.78F
BARABOO/DELLS  CLOUDY    70  27  20 S17G26    29.78F
LONE ROCK      CLOUDY    72  32  23 S14G22    29.77F
MINERAL POINT  MOSUNNY   72  28  20 SE14G23   29.79F
MADISON        PTSUNNY   70  29  21 S15       29.80F
MIDDLETON      SUNNY     73  24  15 S14G21    29.81F
WATERTOWN      SUNNY     72  33  24 S13G21    29.82F
MONROE         CLOUDY    72  28  20 SE18      29.80F
JANESVILLE     PTSUNNY   73  25  16 MISG      29.82F
$$

WIZ051-052-058>065-066-070>072-242200-
SOUTHEAST WISCONSIN

CITY           SKY/WX    TMP DP  RH WIND       PRES   REMARKS
MILWAUKEE      CLOUDY    64  33  31 SE13      29.88F
WAUKESHA       SUNNY     66  28  24 SE17      29.87F
MILWAUKEE/TIMM SUNNY     66  21  18 SE17      29.88F
RACINE         MOSUNNY   64  32  30 SE7       29.89F
KENOSHA        CLOUDY    66  32  28 SE13      29.87F
FOND DU LAC    SUNNY     70  35  27 S18       29.83F
SHEBOYGAN      CLOUDY    64  35  34 S10G20    29.88F
WEST BEND      CLOUDY    66  30  26 SE16      29.86F
JUNEAU         CLOUDY    70  35  27 SE14      29.84F
$$

LSZ147-162-242200-
LAKE SUPERIOR

STATION/POSITION TIME  TEMP    WIND        PRES    WAVE
                       AIR SEA DIR/SP/G            HT/PER
                 (UTC) (F)     (DEG/KT/KT) (MB)    (FT/S)
DEVILS ISLAND    2100   36      50/ 30/ 35 1008.6F
SAXON HARBOR     2030   40     340/  4/  6 1007.8F
$$

LMZ867-665-643>646-242200-
LAKE MICHIGAN

STATION/POSITION TIME  TEMP    WIND        PRES    WAVE
                       AIR SEA DIR/SP/G            HT/PER
                 (UTC) (F)     (DEG/KT/KT) (MB)    (FT/S)
CHAMBERS ISLAND  2040   47      60/  8/ 11 1012.5F
N MID LAKE BUOY  2050   40 37   80/ 10/ 12 1014.6F   1/ 3
NORTHPORT PIER   2040   41      80/ 11/ 12 1013.5F
SISTER BAY       2021   56     140/ 12/ 15   N/A
KEWAUNEE LAKESHO 2048   44      70/  2/  6 1012.4F
SHEBOYGAN LAKESH 2100   45     160/  9/ 10 1012.3F
PORT WASHINGTON  2040   48     130/  3/  4 1013.2F
MILWAUKEE LAKESH 2050   45      50/  2/  2   N/A
S MID LAKE BUOY  1950   47 43   30/  4/  4 1013.7F   1/ 3
KENOSHA   LAKESH 2100   49      60/  2/  4 1011.9
$$

TC  - TEMPERATURE IN CELSIUS
VSB - VISIBILITY IN STATUTE MILES
WCI - WIND CHILL INDEX
HX  - HEAT INDEX





USA.gov is the U.S. government's official web portal to all federal, state and local government web resources and services.